Flag for U.S.A. Weather past 2 weeks in Escondido, California, U.S.A.

Now
41 °F

Clear.


Feels Like: 41 °F
Forecast: 49 / 80 °F
Wind: No wind

Location: Ramona Airport

Current Time: Mar 30, 2015 at 6:23:40 AM

Latest Report: Mar 30, 2015 at 5:53 AM


Visibility: 10 mi

Pressure: 29.98 "Hg

Humidity: 86%

Dew point: 37 °F

Location of EscondidoLocation

Historic Weather in Escondido — Graph

°F

Escondido temperature yesterday

Maximum temperature yesterday: 83 °F (at 12:53 PM)
Minimum temperature yesterday: 46 °F (at 4:53 AM)
Average temperature yesterday: 63 °F

Past Weeks' High & Low Weather Summary

 TemperatureHumidityPressure
High89 °F (Mar 26, 1:53 PM)100% (Mar 21, 11:53 PM)30.18 "Hg (Mar 21, 11:53 PM)
Low37 °F (Mar 21, 6:53 AM)7% (Mar 26, 2:53 PM)29.88 "Hg (Mar 16, 3:53 PM)
Average61 °F58%30.03 "Hg
* Reported Mar 15 4:53 AM — Mar 30 4:53 AM, Escondido, Weather by CustomWeather, © 2015

Note: Actual official high and low records may vary slightly from our data, if they occured in-between our weather recording intervals... More about our weather records

Advertising

Escondido weather history for previous 24 hours

 ConditionsComfort  
Time TempWeatherWind HumidityBarometerVisibility
4:53 AM
Mon, Mar 30
43 °FClear.No wind82%29.97 "Hg10 mi
3:53 AM45 °FClear.No wind82%29.97 "Hg10 mi
2:53 AM47 °FClear.No wind86%29.98 "Hg10 mi
1:53 AM49 °FClear.No wind80%29.98 "Hg10 mi
12:53 AM49 °FClear.No wind84%30.00 "Hg10 mi
11:53 PM
Sun, Mar 29
50 °FClear.No wind77%30.01 "Hg10 mi
10:53 PM53 °FClear.No wind72%30.02 "Hg10 mi
9:53 PM57 °FClear.No wind69%30.02 "Hg10 mi
8:53 PM56 °FClear.5 mph70%30.01 "Hg10 mi
7:53 PM63 °FSunny.8 mph56%29.98 "Hg10 mi
6:53 PM69 °FSunny.6 mph42%29.98 "Hg10 mi
5:53 PM75 °FSunny.8 mph32%29.98 "Hg10 mi
4:53 PM79 °FSunny.10 mph28%29.97 "Hg10 mi
3:53 PM78 °FSunny.12 mph33%29.98 "Hg10 mi
2:53 PM80 °FSunny.14 mph36%29.98 "Hg10 mi
1:53 PM83 °FSunny.12 mph26%29.98 "Hg10 mi
12:53 PM83 °FSunny.N/A15%30.00 "Hg10 mi
11:53 AM81 °FSunny.9 mph19%30.02 "Hg10 mi
10:53 AM77 °FSunny.5 mph16%30.03 "Hg10 mi
9:53 AM74 °FSunny.No wind21%30.03 "Hg10 mi
8:53 AM63 °FSunny.No wind38%30.04 "Hg10 mi
7:53 AM52 °FSunny.No wind64%30.05 "Hg10 mi
6:53 AM47 °FClear.3 mph69%30.04 "Hg10 mi
Weather by CustomWeather, © 2015

See weather overviewHow to use our weather pages